• In Netherlands
  • List of Countries
  • For 7 days
  • Water Temperature
  • Satellite Maps
  • Weather Map
  • Weather Widgets
  • user-avatar
    Login

    Hourly Weather Kandi

    Today, 25 May, Thursday

    Time Temperature Precipitation Wind Pressure Humidity
    00:00 +31°C° 0 mm 2 mps 737 mmHg 61%
    01:00 +31°C° 0 mm 2 mps 736 mmHg 63%
    02:00 +30°C° 0 mm 2 mps 736 mmHg 65%
    03:00 +30°C° 0 mm 2 mps 736 mmHg 66%
    04:00 +30°C° 0 mm 2 mps 736 mmHg 68%
    05:00 +29°C° 0 mm 2 mps 736 mmHg 69%
    06:00 +29°C° 0 mm 2 mps 736 mmHg 70%
    07:00 +31°C° 0 mm 2 mps 736 mmHg 62%
    08:00 +34°C° 0 mm 3 mps 737 mmHg 54%
    09:00 +36°C° 0 mm 3 mps 737 mmHg 47%
    10:00 +39°C° 0 mm 2 mps 737 mmHg 39%
    11:00 +42°C° 0 mm 1 mps 737 mmHg 32%
    12:00 +45°C° 0 mm 1 mps 737 mmHg 25%
    13:00 +43°C° 0 mm 1 mps 736 mmHg 26%
    14:00 +42°C° 0 mm 1 mps 735 mmHg 28%
    15:00 +40°C° 0 mm 1 mps 734 mmHg 30%
    16:00 +39°C° 0 mm 1 mps 734 mmHg 32%
    17:00 +37°C° 0 mm 1 mps 735 mmHg 34%
    18:00 +38°C° 0 mm 2 mps 735 mmHg 36%
    19:00 +37°C° 0.1 mm 2 mps 735 mmHg 40%
    20:00 +36°C° 0.1 mm 2 mps 736 mmHg 44%
    21:00 +35°C° 0.1 mm 3 mps 736 mmHg 48%
    22:00 +34°C° 0 mm 3 mps 736 mmHg 53%
    23:00 +33°C° 0 mm 4 mps 737 mmHg 57%

    Tomorrow, 26 May, Friday

    Time Temperature Precipitation Wind Pressure Humidity
    00:00 +32°C° 0 mm 4 mps 737 mmHg 62%
    01:00 +30°C° 0 mm 4 mps 737 mmHg 65%
    02:00 +30°C° 0 mm 4 mps 736 mmHg 68%
    03:00 +29°C° 0 mm 4 mps 736 mmHg 71%
    04:00 +29°C° 0.1 mm 3 mps 737 mmHg 72%
    05:00 +29°C° 0.1 mm 3 mps 737 mmHg 73%
    06:00 +29°C° 0.1 mm 3 mps 738 mmHg 74%
    07:00 +29°C° 0.1 mm 3 mps 738 mmHg 73%
    08:00 +29°C° 0.1 mm 2 mps 739 mmHg 72%
    09:00 +30°C° 0.1 mm 2 mps 739 mmHg 71%
    10:00 +32°C° 0 mm 2 mps 739 mmHg 62%
    11:00 +35°C° 0 mm 2 mps 739 mmHg 53%
    12:00 +37°C° 0 mm 2 mps 738 mmHg 44%
    13:00 +38°C° 0 mm 2 mps 737 mmHg 41%
    14:00 +39°C° 0 mm 1 mps 736 mmHg 38%
    15:00 +37°C° 0 mm 0 mps 736 mmHg 34%
    16:00 +39°C° 0 mm 1 mps 736 mmHg 37%
    17:00 +36°C° 0 mm 1 mps 736 mmHg 40%
    18:00 +35°C° 0 mm 1 mps 736 mmHg 43%
    19:00 +35°C° 0 mm 2 mps 736 mmHg 47%
    20:00 +34°C° 0 mm 2 mps 737 mmHg 50%
    21:00 +32°C° 0 mm 2 mps 738 mmHg 54%
    22:00 +32°C° 0 mm 2 mps 738 mmHg 58%
    23:00 +31°C° 0 mm 2 mps 738 mmHg 62%

    Day after tomorrow, 27 May, Saturday

    Time Temperature Precipitation Wind Pressure Humidity
    00:00 +30°C° 0 mm 3 mps 738 mmHg 67%
    01:00 +30°C° 0 mm 2 mps 737 mmHg 69%
    02:00 +29°C° 0 mm 2 mps 737 mmHg 72%
    03:00 +29°C° 0 mm 2 mps 737 mmHg 74%
    04:00 +29°C° 0 mm 2 mps 737 mmHg 75%
    05:00 +28°C° 0 mm 2 mps 738 mmHg 75%
    06:00 +28°C° 0 mm 1 mps 738 mmHg 76%
    07:00 +30°C° 0 mm 1 mps 738 mmHg 67%
    08:00 +32°C° 0 mm 2 mps 739 mmHg 59%
    09:00 +35°C° 0 mm 2 mps 739 mmHg 50%
    10:00 +37°C° 0 mm 2 mps 739 mmHg 44%
    11:00 +39°C° 0 mm 1 mps 738 mmHg 38%
    12:00 +42°C° 0 mm 1 mps 738 mmHg 31%
    13:00 +42°C° 0 mm 1 mps 737 mmHg 30%
    14:00 +42°C° 0 mm 1 mps 736 mmHg 28%
    15:00 +43°C° 0 mm 1 mps 735 mmHg 26%
    16:00 +41°C° 0.1 mm 1 mps 735 mmHg 30%
    17:00 +39°C° 0.1 mm 1 mps 735 mmHg 34%
    18:00 +36°C° 0.1 mm 1 mps 735 mmHg 37%
    19:00 +35°C° 0.2 mm 1 mps 736 mmHg 40%
    20:00 +34°C° 0.2 mm 1 mps 736 mmHg 43%
    21:00 +33°C° 0.2 mm 1 mps 737 mmHg 46%
    22:00 +32°C° 0.4 mm 1 mps 737 mmHg 51%
    23:00 +31°C° 0.4 mm 2 mps 737 mmHg 56%

    28 May, Sunday

    Time Temperature Precipitation Wind Pressure Humidity
    00:00 +31°C° 0.4 mm 2 mps 737 mmHg 61%
    01:00 +30°C° 0 mm 2 mps 737 mmHg 63%
    02:00 +30°C° 0 mm 2 mps 737 mmHg 65%
    03:00 +29°C° 0 mm 2 mps 736 mmHg 67%
    04:00 +29°C° 0 mm 2 mps 737 mmHg 68%
    05:00 +29°C° 0 mm 2 mps 737 mmHg 68%
    06:00 +29°C° 0 mm 2 mps 738 mmHg 69%
    07:00 +31°C° 0 mm 3 mps 738 mmHg 61%
    08:00 +34°C° 0 mm 3 mps 739 mmHg 54%
    09:00 +36°C° 0 mm 3 mps 739 mmHg 47%
    10:00 +38°C° 0 mm 3 mps 738 mmHg 42%
    11:00 +40°C° 0 mm 2 mps 738 mmHg 36%
    12:00 +42°C° 0 mm 2 mps 737 mmHg 31%
    13:00 +42°C° 0 mm 2 mps 737 mmHg 30%
    14:00 +42°C° 0 mm 2 mps 736 mmHg 30%
    15:00 +41°C° 0 mm 2 mps 735 mmHg 29%
    16:00 +40°C° 0 mm 2 mps 735 mmHg 31%
    17:00 +39°C° 0 mm 2 mps 735 mmHg 33%
    18:00 +38°C° 0 mm 2 mps 735 mmHg 35%
    19:00 +37°C° 0 mm 2 mps 736 mmHg 38%
    20:00 +37°C° 0 mm 2 mps 736 mmHg 41%
    21:00 +36°C° 0 mm 3 mps 737 mmHg 44%
    22:00 +35°C° 0.4 mm 2 mps 736 mmHg 50%
    23:00 +34°C° 0.4 mm 2 mps 736 mmHg 55%

    29 May, Monday

    Time Temperature Precipitation Wind Pressure Humidity
    00:00 +32°C° 0.4 mm 2 mps 736 mmHg 61%
    01:00 +31°C° 1.7 mm 3 mps 736 mmHg 65%
    02:00 +30°C° 1.7 mm 4 mps 736 mmHg 70%
    03:00 +29°C° 1.7 mm 4 mps 735 mmHg 75%
    04:00 +29°C° 0 mm 4 mps 736 mmHg 76%
    05:00 +29°C° 0 mm 3 mps 736 mmHg 77%
    06:00 +29°C° 0 mm 3 mps 737 mmHg 77%
    07:00 +31°C° 0 mm 3 mps 737 mmHg 70%
    08:00 +33°C° 0 mm 3 mps 737 mmHg 63%
    09:00 +35°C° 0 mm 4 mps 738 mmHg 56%
    10:00 +37°C° 0 mm 4 mps 737 mmHg 51%
    11:00 +38°C° 0 mm 4 mps 737 mmHg 45%
    12:00 +41°C° 0 mm 4 mps 736 mmHg 40%
    13:00 +41°C° 0 mm 4 mps 735 mmHg 39%
    14:00 +42°C° 0 mm 4 mps 734 mmHg 37%
    15:00 +42°C° 0 mm 3 mps 734 mmHg 36%
    16:00 +40°C° 0.1 mm 3 mps 734 mmHg 40%
    17:00 +38°C° 0.1 mm 3 mps 734 mmHg 44%
    18:00 +37°C° 0.1 mm 3 mps 735 mmHg 49%
    19:00 +36°C° 0 mm 4 mps 735 mmHg 53%
    20:00 +35°C° 0 mm 4 mps 735 mmHg 57%
    21:00 +34°C° 0 mm 5 mps 736 mmHg 61%
    22:00 +33°C° 0 mm 5 mps 736 mmHg 64%
    23:00 +32°C° 0 mm 4 mps 736 mmHg 66%

    30 May, Tuesday

    Time Temperature Precipitation Wind Pressure Humidity
    00:00 +32°C° 0 mm 4 mps 735 mmHg 69%
    01:00 +30°C° 1.3 mm 4 mps 736 mmHg 73%
    02:00 +29°C° 1.3 mm 3 mps 736 mmHg 76%
    03:00 +29°C° 1.3 mm 2 mps 736 mmHg 80%
    04:00 +28°C° 0.3 mm 3 mps 736 mmHg 81%
    05:00 +28°C° 0.3 mm 3 mps 737 mmHg 82%
    06:00 +28°C° 0.3 mm 4 mps 737 mmHg 83%
    07:00 +29°C° 0 mm 4 mps 737 mmHg 78%
    08:00 +30°C° 0 mm 4 mps 738 mmHg 73%
    09:00 +32°C° 0 mm 4 mps 738 mmHg 68%
    10:00 +34°C° 0 mm 4 mps 737 mmHg 61%
    11:00 +36°C° 0 mm 4 mps 737 mmHg 54%
    12:00 +38°C° 0 mm 4 mps 737 mmHg 47%
    13:00 +38°C° 0 mm 4 mps 736 mmHg 46%
    14:00 +40°C° 0 mm 4 mps 735 mmHg 44%
    15:00 +39°C° 0 mm 3 mps 735 mmHg 43%
    16:00 +38°C° 0 mm 3 mps 735 mmHg 46%
    17:00 +37°C° 0 mm 2 mps 735 mmHg 49%
    18:00 +36°C° 0 mm 2 mps 736 mmHg 52%
    19:00 +35°C° 0.3 mm 2 mps 736 mmHg 56%
    20:00 +34°C° 0.3 mm 2 mps 737 mmHg 60%
    21:00 +32°C° 0.3 mm 2 mps 738 mmHg 64%
    22:00 +31°C° 0.1 mm 2 mps 737 mmHg 66%
    23:00 +31°C° 0.1 mm 2 mps 737 mmHg 68%
    Show more